User: anonymous   Login
Location: Deer Lake
(49.1830°N, 57.4330°W)
Time: 11:47:38
(UTC-03:-30)
Language:

Cosmos 1707 - Orbit

View from above orbital plane
View from above orbital plane
View from above satellite
View from above satellite

Ground track
Ground track

The orbit data is extracted from the following two-line orbital elements,

1 16326U 85113A   17022.88116626 +.00000255 +00000-0 +12600-4 0  9991
2 16326 082.5124 351.0591 0012530 084.1284 276.1376 15.13075708695092
Epoch (UTC): 22 January 2017 21:08:52
Eccentricity: 0.0012530
inclination: 82.5124°
perigee height: 518 km
apogee height: 535 km
right ascension of ascending node: 351.0591°
argument of perigee: 84.1284°
revolutions per day: 15.13075708
mean anomaly at epoch: 276.1376°
orbit number at epoch: 69509

The dashed part of the orbit path shows where the satellite is in the earth's shadow,  

DLR